Tracking 18843 objects as of 20-November-2017
HD Live streaming from Space Station
objects crossing your sky now

FENGYUN 1C DEB

Track FENGYUN 1C DEB now!
10-day predictions


NORAD ID: 36242
Int'l Code: 1999-025DVT
Perigee: 838.3 km
Apogee: 941.0 km
Inclination: 98.1 °
Period: 102.6 minutes
Semi major axis: 7260 km
RCS: 0.0099 m2 (small)
Launch date: May 10, 1999
Source: People's Republic of China (PRC)
Launch site: Taiyaun Space Center, China (TSC)

Note: This is SATELLITE DEBRIS
aabbcc
Your satellite tracking list
Your tracking list is empty




NASA's NSSDC Master Catalog

Two Line Element Set (TLE):
1 36242U 99025DVT 17323.11340772  .00001251  00000-0  80710-3 0  9991
2 36242  98.1404 283.8342 0070724 122.4539 238.3494 14.03262195519697
Source of the keplerian elements: AFSPC